Regional Weather Roundup
Issued by NWS

Home | Current Version | Previous Version | Text Only | Print | Product List | Glossary Off
Versions: 1 2 3 4 5 6 7 8 9 10 11 12 13 14 15 16 17 18 19 20 21 22 23 24 25 26 27 28 29 30 31 32 33 34 35 36 37 38 39 40 41 42 43 44 45 46 47 48 49 50

000
ASUS43 KLOT 270210
RWRIL

ILLINOIS REGIONAL WEATHER ROUNDUP
NATIONAL WEATHER SERVICE CHICAGO/ROMEOVILLE IL
800 PM CST MON JAN 26 2015

NOTE: "FAIR" INDICATES FEW OR NO CLOUDS BELOW 12,000 FEET WITH NO
SIGNIFICANT WEATHER AND/OR OBSTRUCTIONS TO VISIBILITY.

* THESE STATIONS ARE NOT UNDER NWS QUALITY CONTROL. THEY ALSO MAY NOT
  REPORT WEATHER SUCH AS PRECIPITATION OR FOG.

ILZ001-002-007-009-015-016-024-270300-
NORTHWEST ILLINOIS

CITY           SKY/WX    TMP DP  RH WIND       PRES   REMARKS
MOLINE         CLOUDY    32  30  92 CALM      29.86S FOG
STERLING*      CLOUDY    28  27  93 CALM      29.88S
SAVANNA*       CLOUDY    28  27  95 CALM      29.87F FOG
$$

ILZ003-004-008-010-011-017-018-270300-
NORTH CENTRAL ILLINOIS

CITY           SKY/WX    TMP DP  RH WIND       PRES   REMARKS
ROCKFORD       FRZ DRZL  26  23  88 S5        29.90S FOG     WCI  20
FREEPORT*      CLOUDY    25  24  95 CALM      29.89S FOG
ROCHELLE*      CLOUDY    26  26  98 S5        29.89R FOG     WCI  21
DE KALB*       MIX PCPN  24  23  96 SE8       29.88S WCI  16
PERU*          CLOUDY    29  28  97 S5        29.89S FOG     WCI  24
$$

ILZ005-006-012>014-019>023-270300-
NORTHEAST ILLINOIS

CITY           SKY/WX    TMP DP  RH WIND       PRES   REMARKS
CHICAGO-OHARE  FRZ DRZL  25  24  96 S5        29.90R FOG     WCI  19
CHICAGO-MIDWAY FRZ DRZL  27  24  89 VRB6      29.91S FOG     WCI  20
AURORA         CLOUDY    27  24  89 SE7       29.89S FOG     WCI  19
LANSING*       LGT SNOW  26  25  95 S6        29.91F WCI  19
JOLIET*        LGT RAIN  26  25  96 SE5       29.91R WCI  20
WAUKEGAN       LGT SNOW  25  23  92 SE3       29.89S FOG
DUPAGE AIRPORT CLOUDY    26  24  92 S6        29.88S FOG     WCI  19
KANKAKEE*      CLOUDY    27  26  96 S5        29.91F FOG     WCI  22
WHEELING       LGT SNOW  26  24  92 S6        29.92R FOG     WCI  19
MORRIS*        MIX PCPN  28  28 100 S6        29.89S WCI  22
ROMEOVILLE*    LGT RAIN  26  26  99 S7        29.90S WCI  18
NORTHERLY ISL    N/A     26  23  88 S6          N/A  WCI  20
$$

LMZ740>746-270300-
SOUTHERN LAKE MICHIGAN

STATION/POSITION SKY/WX   TEMP    WIND        PRES    VSBY  WAVE
                          AIR SEA DIR/SP/G                  HT/PER
                          (F)     (DEG/KT/KT) (MB)    (MI)  (FT/S)
WAUKEGAN HARBOR            26     160/  3/  7   N/A
HARRISON CRIB              26     180/  9/ 11   N/A
BURNHAM HARBOR             26     140/  5/  8   N/A
CALUMET HARBOR             26                   N/A
MICHIGAN CITY              24     130/  7/  8   N/A
$$

ILZ025>027-034>036-040-047-049-050-058-095>099-270300-
WEST-CENTRAL ILLINOIS

CITY           SKY/WX    TMP DP  RH WIND       PRES   REMARKS
QUINCY         CLOUDY    38  33  82 SW3       29.89R
GALESBURG*     CLOUDY    33  32  94 SW3       29.88R
MACOMB*        CLOUDY    32  32  99 SW5       29.90R WCI  28
JACKSONVILLE*  CLOUDY    36  32  85 CALM      29.90R
PITTSFIELD*    CLOUDY    36  32  85 SW3       29.90R
$$

ILZ028>032-037-038-041>044-048-051>054-059>061-270300-
CENTRAL ILLINOIS

CITY           SKY/WX    TMP DP  RH WIND       PRES   REMARKS
PONTIAC        CLOUDY    30  30  98 S5        29.90S FOG     WCI  25
BLOOMINGTON    FRZ RAIN  30  30 100 W9        29.89S FOG     WCI  22
DECATUR        CLOUDY    30  30 100 S7        29.90R FOG     WCI  23
PEORIA         CLOUDY    31  29  92 S5        29.89S FOG     WCI  26
LACON*         CLOUDY    29  28  94 CALM      29.88S FOG
LINCOLN*       CLOUDY    32  31  96 S3        29.91R FOG
SPRINGFIELD    CLOUDY    33  29  85 SW5       29.91R WCI  29
TAYLORVILLE    CLOUDY    32  30  93 S5        29.91R WCI  27
$$

ILZ033-039-045-046-055>057-062-063-270300-
EAST-CENTRAL ILLINOIS

CITY           SKY/WX    TMP DP  RH WIND       PRES   REMARKS
CHAMPAIGN      FRZ RAIN  28  27  96 S10       29.90S FOG     WCI  19
DANVILLE*      DRIZZLE   27  26  96 S5        29.90S WCI  21
RANTOUL*       MIX PCPN  30  29  96 S8        29.90F WCI  22
MATTOON        CLOUDY    27  25  92 S7        29.91S FOG     WCI  19
PARIS*         CLOUDY    28  28  97 NE5       29.94S FOG     WCI  23
$$

ILZ079-100>102-270300-
SOUTHWEST ILLINOIS

CITY           SKY/WX    TMP DP  RH WIND       PRES   REMARKS
ALTON          CLOUDY    34  30  86 S6        29.92S WCI  29
BELLEVILLE     CLOUDY    34  31  91 S2        29.93R
CAHOKIA*       MOCLDY    34  29  82 CALM      29.92S
SPARTA*        MOCLDY    32  28  86 SE6       29.93S WCI  26
$$

ILZ064>066-069>071-074>076-080>082-084>086-088>090-092>094-270300-
SOUTH-CENTRAL ILLINOIS

CITY           SKY/WX    TMP DP  RH WIND       PRES   REMARKS
CARBONDALE     CLOUDY    35  29  78 S6        29.93F WCI  30
CAIRO*         CLEAR     34  30  88 CALM      29.95F
EFFINGHAM*     MIX PCPN  30  27  89 SE6       29.94S WCI  24
MARION         CLOUDY    36  30  80 S6        29.93F WCI  31
MT. VERNON     CLOUDY    34  27  75 S3        29.93F
CENTRALIA*     CLOUDY    33  28  83 S3        29.92S
SALEM*         CLOUDY    34  30  85 S7        29.92F WCI  28
METROPOLIS*    CLOUDY    37  32  83 CALM      29.94F
$$

ILZ067-068-072-073-078-083-087-091-270300-
SOUTHEAST ILLINOIS

CITY           SKY/WX    TMP DP  RH WIND       PRES   REMARKS
LAWRENCEVILLE  CLOUDY    28  26  92 SE6       29.96F WCI  22
FLORA*         CLOUDY    30  28  94 SE7       29.94F WCI  23
FAIRFIELD*     CLOUDY    31  29  91 SE3       29.93F
HARRISBURG*    CLOUDY    33  31  92 SE5       29.95F WCI  28
ROBINSON*      CLOUDY    28  26  92 S5        29.97S WCI  23
CARMI*         CLOUDY    32  30  93 SE5       29.96S WCI  27
$$

ABBREVIATIONS USED IN REMARKS
   TC - TEMPERATURE IN CELSIUS
  WCI - WIND CHILL INDEX
   HX - HEAT INDEX
  VSB - VISIBILITY
$$




USA.gov is the U.S. government's official web portal to all federal, state and local government web resources and services.